508P/McNaught (2018)

Japanese version
Home page
Updated on August 27, 2025

---------------------------------------------------------------------

* Profile

* Orbital Elements

                    Epoch = 2018 Oct.  9.0 TT
     T = 2018 Oct. 12.63151 TT        Peri. = 338.92465
     e = 0.5703767                    Node  = 268.79586 2000.0
     q = 1.5334460 AU                 Incl. =  31.76849
       a =  3.5692805 AU   n = 0.14616152   P =   6.74 years

* Magnitudes Graph

        m1 = 15.7 + 5 log d + 15.0 log r

---------------------------------------------------------------------

The orbital elements are printed on CBET 5592.
The magnitudes graphs are made with Comet for Windows.

---------------------------------------------------------------------

Copyright(C) Seiichi Yoshida (comet@aerith.net). All rights reserved.